^^
Grace C. Lehan Memorial Weather Station Historical Data
Daily Summary for August 09, 2022 Units:  English    Metric   Both
Daily Weekly Monthly Yearly
  High: Low: Average:
Temperature: 98.4 °F 79 °F 87.9 °F
Dew Point: 79.8 °F 74.3 °F 76.4 °F
Humidity: 87% 50% 70%
Wind Speed: 4mph 0mph 0.8mph
Wind Gust: 14mph - -
Wind- - West
Pressure: 29.85 in 29.81 in -
Precipitation: 0.00 in    
 
 
Tabular Data for August 09, 2022
Time Temperature Dew Point Pressure Wind Wind Speed Wind Gust Humidity Rainfall Rate (Hourly) solar
00:00 80 °F 74.7 °F 29.85 in Calm   1 mph 84% 0.00 in 0 W/m2
00:09 79.9 °F 74.7 °F 29.85 in Calm     84% 0.00 in 0 W/m2
00:14 79.9 °F 74.9 °F 29.85 in Calm     84.7% 0.00 in 0 W/m2
00:19 79.8 °F 74.9 °F 29.85 in Calm     85% 0.00 in 0 W/m2
00:24 79.8 °F 74.9 °F 29.85 in Calm     85% 0.00 in 0 W/m2
00:29 79.8 °F 74.9 °F 29.85 in WSW 0.3 mph 5 mph 85% 0.00 in 0 W/m2
00:34 79.8 °F 74.9 °F 29.84 in Calm   5 mph 85% 0.00 in 0 W/m2
00:39 79.8 °F 74.9 °F 29.84 in Calm   1 mph 85% 0.00 in 0 W/m2
00:44 79.8 °F 74.9 °F 29.84 in SW 0.1 mph 2 mph 85% 0.00 in 0 W/m2
00:49 79.7 °F 74.8 °F 29.84 in SW 0.5 mph 4 mph 85% 0.00 in 0 W/m2
00:54 79.7 °F 74.8 °F 29.84 in SW 0.2 mph 4 mph 85% 0.00 in 0 W/m2
00:59 79.7 °F 74.8 °F 29.84 in Calm   4 mph 85% 0.00 in 0 W/m2
01:04 79.7 °F 74.8 °F 29.84 in SW 0.2 mph 4 mph 85% 0.00 in 0 W/m2
01:09 79.7 °F 74.8 °F 29.84 in SW 0.2 mph 3 mph 85% 0.00 in 0 W/m2
01:14 79.7 °F 74.8 °F 29.84 in Calm   3 mph 85% 0.00 in 0 W/m2
01:19 79.7 °F 74.8 °F 29.83 in SW 0.1 mph 3 mph 85% 0.00 in 0 W/m2
01:24 79.7 °F 74.8 °F 29.83 in SW 0.3 mph 4 mph 85% 0.00 in 0 W/m2
01:29 79.7 °F 74.8 °F 29.83 in Calm   4 mph 85% 0.00 in 0 W/m2
01:34 79.7 °F 74.8 °F 29.83 in SW 0.1 mph 4 mph 85% 0.00 in 0 W/m2
01:39 79.6 °F 74.7 °F 29.83 in Calm   2 mph 85% 0.00 in 0 W/m2
01:44 79.6 °F 74.7 °F 29.83 in Calm   2 mph 85% 0.00 in 0 W/m2
01:49 79.6 °F 75 °F 29.83 in Calm   2 mph 85.9% 0.00 in 0 W/m2
01:54 79.6 °F 75.1 °F 29.83 in Calm   2 mph 86% 0.00 in 0 W/m2
01:59 79.6 °F 75.1 °F 29.83 in Calm   2 mph 86% 0.00 in 0 W/m2
02:04 79.6 °F 75.1 °F 29.83 in Calm   2 mph 86% 0.00 in 0 W/m2
02:09 79.6 °F 75.1 °F 29.83 in Calm   1 mph 86% 0.00 in 0 W/m2
02:14 79.6 °F 75.1 °F 29.82 in Calm   1 mph 86% 0.00 in 0 W/m2
02:19 79.6 °F 75.1 °F 29.82 in Calm   1 mph 86% 0.00 in 0 W/m2
02:24 79.6 °F 75 °F 29.82 in WSW 0.3 mph 3 mph 86% 0.00 in 0 W/m2
02:29 79.5 °F 75 °F 29.82 in Calm   3 mph 86% 0.00 in 0 W/m2
02:34 79.5 °F 75 °F 29.82 in Calm   3 mph 86% 0.00 in 0 W/m2
02:39 79.5 °F 75 °F 29.82 in WSW 0.1 mph 2 mph 86% 0.00 in 0 W/m2
02:44 79.6 °F 75 °F 29.82 in Calm   2 mph 86% 0.00 in 0 W/m2
02:49 79.6 °F 75.1 °F 29.82 in Calm   2 mph 86% 0.00 in 0 W/m2
02:54 79.6 °F 75.1 °F 29.82 in Calm   2 mph 86% 0.00 in 0 W/m2
02:59 79.6 °F 75.1 °F 29.82 in Calm   2 mph 86% 0.00 in 0 W/m2
03:04 79.6 °F 75.1 °F 29.82 in Calm   2 mph 86% 0.00 in 0 W/m2
03:09 79.6 °F 75.1 °F 29.82 in Calm     86% 0.00 in 0 W/m2
03:14 79.6 °F 75.1 °F 29.82 in Calm   1 mph 86% 0.00 in 0 W/m2
03:19 79.6 °F 75 °F 29.82 in Calm   1 mph 86% 0.00 in 0 W/m2
03:24 79.5 °F 75 °F 29.82 in WSW 0.1 mph 2 mph 86% 0.00 in 0 W/m2
03:29 79.5 °F 74.9 °F 29.82 in Calm   2 mph 86% 0.00 in 0 W/m2
03:34 79.5 °F 74.9 °F 29.82 in Calm   2 mph 86% 0.00 in 0 W/m2
03:39 79.4 °F 74.9 °F 29.82 in Calm   1 mph 86% 0.00 in 0 W/m2
03:44 79.4 °F 74.8 °F 29.82 in Calm   1 mph 86% 0.00 in 0 W/m2
03:49 79.4 °F 74.8 °F 29.82 in Calm   1 mph 86% 0.00 in 0 W/m2
03:54 79.4 °F 74.8 °F 29.82 in WSW 0.1 mph 2 mph 86% 0.00 in 0 W/m2
03:59 79.4 °F 74.8 °F 29.81 in WSW 0.1 mph 2 mph 86% 0.00 in 0 W/m2
04:00 79.4 °F 74.8 °F 29.81 in Calm   2 mph 86% 0.00 in 0 W/m2
04:09 79.4 °F 74.8 °F 29.82 in West 0.2 mph 5 mph 86% 0.00 in 0 W/m2
04:14 79.4 °F 74.8 °F 29.82 in West 0.1 mph 5 mph 86% 0.00 in 0 W/m2
04:19 79.4 °F 74.9 °F 29.82 in Calm   5 mph 86% 0.00 in 0 W/m2
04:24 79.4 °F 74.9 °F 29.82 in Calm   5 mph 86% 0.00 in 0 W/m2
04:29 79.4 °F 74.9 °F 29.82 in Calm   5 mph 86% 0.00 in 0 W/m2
04:34 79.4 °F 74.8 °F 29.82 in Calm   5 mph 86% 0.00 in 0 W/m2
04:39 79.4 °F 74.8 °F 29.82 in Calm     86% 0.00 in 0 W/m2
04:44 79.4 °F 74.8 °F 29.82 in Calm     86% 0.00 in 0 W/m2
04:49 79.3 °F 74.8 °F 29.82 in Calm     86% 0.00 in 0 W/m2
04:54 79.3 °F 74.8 °F 29.82 in Calm     86% 0.00 in 0 W/m2
04:59 79.3 °F 74.7 °F 29.82 in Calm     86% 0.00 in 0 W/m2
05:04 79.2 °F 74.7 °F 29.82 in Calm     86% 0.00 in 0 W/m2
05:09 79.2 °F 74.7 °F 29.82 in Calm     86.2% 0.00 in 0 W/m2
05:14 79.2 °F 75 °F 29.82 in Calm     87% 0.00 in 0 W/m2
05:19 79.1 °F 74.9 °F 29.82 in Calm     87% 0.00 in 0 W/m2
05:24 79.1 °F 74.9 °F 29.82 in Calm     87% 0.00 in 0 W/m2
05:29 79.1 °F 74.9 °F 29.82 in Calm     87% 0.00 in 0 W/m2
05:34 79.1 °F 74.9 °F 29.82 in Calm     87% 0.00 in 0 W/m2
05:39 79 °F 74.8 °F 29.82 in Calm     87% 0.00 in 0 W/m2
05:44 79 °F 74.8 °F 29.82 in Calm     87% 0.00 in 0 W/m2
05:49 79 °F 74.8 °F 29.82 in Calm     87% 0.00 in 0 W/m2
05:54 79 °F 74.8 °F 29.82 in Calm     87% 0.00 in 0 W/m2
05:59 79 °F 74.8 °F 29.82 in Calm     87% 0.00 in 0 W/m2
06:04 79 °F 74.8 °F 29.82 in Calm     87% 0.00 in 5 W/m2
06:09 79.1 °F 74.9 °F 29.82 in Calm     87% 0.00 in 9 W/m2
06:14 79.1 °F 74.9 °F 29.82 in Calm     87% 0.00 in 12 W/m2
06:19 79.1 °F 74.9 °F 29.82 in Calm     87% 0.00 in 12 W/m2
06:24 79.2 °F 75 °F 29.82 in Calm     87% 0.00 in 12 W/m2
06:29 79.2 °F 75 °F 29.82 in Calm     87% 0.00 in 19 W/m2
06:34 79.3 °F 75.1 °F 29.83 in Calm     87% 0.00 in 30 W/m2
06:39 79.3 °F 75.1 °F 29.82 in Calm     87% 0.00 in 70 W/m2
06:44 79.4 °F 75.2 °F 29.83 in Calm     87% 0.00 in 81 W/m2
06:49 79.6 °F 75.4 °F 29.83 in Calm     87% 0.00 in 91 W/m2
06:54 80 °F 75.7 °F 29.83 in Calm     86.8% 0.00 in 128 W/m2
06:59 80.6 °F 76 °F 29.83 in Calm     86% 0.00 in 162 W/m2
07:04 81 °F 76 °F 29.83 in Calm     84.6% 0.00 in 141 W/m2
07:09 81.4 °F 75.9 °F 29.83 in Calm     83.5% 0.00 in 42 W/m2
07:14 81.5 °F 75.9 °F 29.83 in Calm     83% 0.00 in 151 W/m2
07:19 81.7 °F 76.2 °F 29.83 in Calm     83.4% 0.00 in 200 W/m2
07:24 82.2 °F 76.5 °F 29.83 in Calm     83.1% 0.00 in 225 W/m2
07:29 82.9 °F 76.8 °F 29.83 in Calm     81.9% 0.00 in 248 W/m2
07:34 83.6 °F 76.9 °F 29.83 in Calm     80.3% 0.00 in 248 W/m2
07:39 84.3 °F 76.9 °F 29.83 in Calm     78.4% 0.00 in 264 W/m2
07:44 84.8 °F 77.1 °F 29.83 in Calm     77.7% 0.00 in 288 W/m2
07:49 85.4 °F 77.6 °F 29.83 in Calm     77.5% 0.00 in 292 W/m2
07:54 86 °F 77.8 °F 29.83 in West 0.1 mph 2 mph 76.8% 0.00 in 308 W/m2
07:59 86.5 °F 78.1 °F 29.83 in West 0.2 mph 3 mph 76% 0.00 in 320 W/m2
08:00 86.8 °F 77.9 °F 29.83 in Calm   3 mph 75% 0.00 in 322 W/m2
08:09 87.4 °F 77.8 °F 29.83 in WSW 0.1 mph 2 mph 73.2% 0.00 in 350 W/m2
08:14 87.7 °F 78 °F 29.84 in WSW 0.3 mph 3 mph 73.1% 0.00 in 376 W/m2
08:19 88 °F 78 °F 29.84 in WSW 0.4 mph 5 mph 72.3% 0.00 in 394 W/m2
08:24 88.5 °F 78.4 °F 29.84 in Calm   5 mph 72.2% 0.00 in 408 W/m2
08:29 89.1 °F 78.7 °F 29.84 in WSW 0.1 mph 5 mph 71.6% 0.00 in 427 W/m2
08:34 89.6 °F 78.5 °F 29.84 in West 0.6 mph 6 mph 70.1% 0.00 in 441 W/m2
08:39 89.9 °F 78.7 °F 29.83 in West 0.4 mph 5 mph 69.6% 0.00 in 466 W/m2
08:44 90.2 °F 78.4 °F 29.84 in West 1 mph 10 mph 68.4% 0.00 in 475 W/m2
08:49 90.5 °F 78.3 °F 29.84 in West 1 mph 10 mph 67.7% 0.00 in 503 W/m2
08:54 90.7 °F 78.1 °F 29.83 in West 1.9 mph 10 mph 66.8% 0.00 in 585 W/m2
08:59 90.7 °F 77.9 °F 29.83 in WSW 1.5 mph 10 mph 66.4% 0.00 in 594 W/m2
09:04 90.5 °F 77.6 °F 29.83 in West 0.7 mph 10 mph 66.1% 0.00 in 555 W/m2
09:09 90.4 °F 78 °F 29.83 in WSW 0.8 mph 6 mph 67.1% 0.00 in 545 W/m2
09:14 90.7 °F 78.2 °F 29.83 in SW 1.1 mph 9 mph 66.9% 0.00 in 550 W/m2
09:19 91.1 °F 78 °F 29.83 in SW 1.8 mph 9 mph 65.8% 0.00 in 570 W/m2
09:24 91.4 °F 78 °F 29.83 in WSW 1.3 mph 9 mph 65.1% 0.00 in 584 W/m2
09:29 91.6 °F 78.6 °F 29.84 in WSW 2 mph 11 mph 65.9% 0.00 in 601 W/m2
09:34 91.8 °F 78.1 °F 29.84 in WSW 1.6 mph 11 mph 64.3% 0.00 in 612 W/m2
09:39 92.2 °F 78.5 °F 29.84 in WSW 0.6 mph 8 mph 64.5% 0.00 in 626 W/m2
09:44 92.4 °F 78.2 °F 29.83 in WSW 1.3 mph 8 mph 63.5% 0.00 in 643 W/m2
09:49 92.7 °F 78.7 °F 29.83 in WSW 1.2 mph 8 mph 64% 0.00 in 670 W/m2
09:54 93 °F 79.1 °F 29.84 in West 1.3 mph 8 mph 64.1% 0.00 in 689 W/m2
09:59 93.3 °F 79.2 °F 29.83 in WSW 1.7 mph 10 mph 63.7% 0.00 in 761 W/m2
10:04 93.4 °F 78.6 °F 29.83 in WSW 0.7 mph 10 mph 62.2% 0.00 in 798 W/m2
10:09 93.4 °F 79.3 °F 29.83 in WSW 1.3 mph 9 mph 63.8% 0.00 in 802 W/m2
10:14 93.6 °F 79.8 °F 29.83 in WSW 0.5 mph 9 mph 64.4% 0.00 in 747 W/m2
10:19 94 °F 79.2 °F 29.83 in West 2.1 mph 9 mph 62.4% 0.00 in 765 W/m2
10:24 94.2 °F 79.2 °F 29.83 in WSW 1.5 mph 9 mph 62% 0.00 in 772 W/m2
10:29 94.5 °F 79.1 °F 29.84 in WNW 1.4 mph 9 mph 61.3% 0.00 in 863 W/m2
10:34 94.8 °F 79.1 °F 29.84 in WSW 0.6 mph 9 mph 60.8% 0.00 in 867 W/m2
10:39 95 °F 79 °F 29.84 in WSW 1.8 mph 6 mph 60.1% 0.00 in 856 W/m2
10:44 95 °F 78.4 °F 29.84 in SW 0.9 mph 6 mph 59% 0.00 in 856 W/m2
10:49 95.1 °F 78.6 °F 29.84 in SW 1 mph 6 mph 59% 0.00 in 828 W/m2
10:54 95.4 °F 78.4 °F 29.84 in WSW 1.6 mph 6 mph 58.3% 0.00 in 846 W/m2
10:59 95.5 °F 78 °F 29.83 in SW 1.8 mph 7 mph 57.4% 0.00 in 833 W/m2
11:04 95.5 °F 78 °F 29.83 in SSW 1.2 mph 9 mph 57.2% 0.00 in 896 W/m2
11:09 95.4 °F 78.4 °F 29.84 in WSW 1.2 mph 9 mph 58.2% 0.00 in 703 W/m2
11:14 95.5 °F 78.3 °F 29.83 in WSW 1.4 mph 9 mph 57.8% 0.00 in 656 W/m2
11:19 95.5 °F 78.5 °F 29.83 in West 1.2 mph 10 mph 58.1% 0.00 in 656 W/m2
11:24 95.5 °F 77.7 °F 29.84 in WSW 0.8 mph 10 mph 56.7% 0.00 in 654 W/m2
11:29 95.4 °F 78 °F 29.84 in WSW 1.4 mph 10 mph 57.5% 0.00 in 654 W/m2
11:34 95.5 °F 77.9 °F 29.83 in WSW 0.6 mph 10 mph 57.3% 0.00 in 654 W/m2
11:39 95.5 °F 78.1 °F 29.83 in West 1 mph 9 mph 57.5% 0.00 in 701 W/m2
11:44 95.6 °F 77.9 °F 29.83 in West 1.3 mph 10 mph 56.9% 0.00 in 701 W/m2
11:49 95.3 °F 77.8 °F 29.83 in West 0.6 mph 10 mph 57.3% 0.00 in 909 W/m2
11:54 95.2 °F 78.2 °F 29.83 in WSW 0.7 mph 10 mph 58.2% 0.00 in 909 W/m2
11:59 95.5 °F 78.1 °F 29.82 in WSW 2.3 mph 10 mph 57.6% 0.00 in 904 W/m2
12:00 95.6 °F 78.5 °F 29.82 in Calm   10 mph 58% 0.00 in 904 W/m2
12:09 96.2 °F 78.4 °F 29.83 in SW 0.4 mph 3 mph 56.8% 0.00 in 902 W/m2
12:14 96.5 °F 78.7 °F 29.82 in WSW 1.2 mph 8 mph 57% 0.00 in 889 W/m2
12:19 96.7 °F 78.2 °F 29.82 in SW 1.6 mph 8 mph 55.5% 0.00 in 911 W/m2
12:24 96.8 °F 78 °F 29.83 in SW 0.8 mph 8 mph 55.1% 0.00 in 937 W/m2
12:29 96.8 °F 78.1 °F 29.83 in SW 0.7 mph 8 mph 55.2% 0.00 in 1005 W/m2
12:34 96.8 °F 78.1 °F 29.82 in WSW 0.9 mph 9 mph 55.3% 0.00 in 1028 W/m2
12:39 96.7 °F 78.7 °F 29.82 in WSW 0.5 mph 9 mph 56.4% 0.00 in 1048 W/m2
12:44 97 °F 78.9 °F 29.82 in WSW 1 mph 10 mph 56.5% 0.00 in 1076 W/m2
12:49 97.3 °F 78.2 °F 29.82 in SW 1.2 mph 10 mph 54.5% 0.00 in 1076 W/m2
12:54 97.5 °F 78.3 °F 29.82 in WSW 1.5 mph 10 mph 54.5% 0.00 in 1072 W/m2
12:59 97.4 °F 77.9 °F 29.82 in WNW 0.3 mph 10 mph 53.9% 0.00 in 399 W/m2
13:04 97 °F 77.4 °F 29.82 in West 2.2 mph 12 mph 53.6% 0.00 in 302 W/m2
13:09 96.2 °F 77 °F 29.82 in WNW 1.1 mph 12 mph 54.3% 0.00 in 237 W/m2
13:14 95.7 °F 77 °F 29.82 in West 1 mph 12 mph 55.2% 0.00 in 454 W/m2
13:19 95.3 °F 77.4 °F 29.82 in WSW 0.3 mph 12 mph 56.5% 0.00 in 454 W/m2
13:24 95.3 °F 77.2 °F 29.82 in WSW 1.1 mph 12 mph 56% 0.00 in 452 W/m2
13:29 95.5 °F 77 °F 29.82 in West 1.7 mph 12 mph 55.5% 0.00 in 462 W/m2
13:34 95.5 °F 77.2 °F 29.82 in West 0.9 mph 12 mph 55.8% 0.00 in 563 W/m2
13:39 95.5 °F 77 °F 29.82 in WSW 0.8 mph 6 mph 55.3% 0.00 in 840 W/m2
13:44 95.8 °F 77.7 °F 29.81 in West 0.8 mph 6 mph 56.2% 0.00 in 916 W/m2
13:49 96.2 °F 77.8 °F 29.82 in West 0.8 mph 10 mph 55.8% 0.00 in 904 W/m2
13:54 96.6 °F 77.6 °F 29.82 in WSW 0.4 mph 10 mph 54.7% 0.00 in 888 W/m2
13:59 96.8 °F 77.3 °F 29.82 in West 1.4 mph 10 mph 53.8% 0.00 in 970 W/m2
14:04 96.9 °F 77.1 °F 29.81 in SW 1.1 mph 10 mph 53.2% 0.00 in 997 W/m2
14:09 97.2 °F 77.4 °F 29.81 in West 1 mph 9 mph 53.5% 0.00 in 979 W/m2
14:14 97.6 °F 76.9 °F 29.81 in West 1.8 mph 10 mph 51.7% 0.00 in 884 W/m2
14:19 98 °F 77.2 °F 29.81 in SW 1.1 mph 10 mph 51.7% 0.00 in 879 W/m2
14:24 98.3 °F 77 °F 29.81 in West 3.1 mph 11 mph 50.9% 0.00 in 937 W/m2
14:29 98.3 °F 76.7 °F 29.81 in WSW 2 mph 11 mph 50.3% 0.00 in 937 W/m2
14:34 98.3 °F 77.2 °F 29.82 in WSW 1.1 mph 11 mph 51.2% 0.00 in 933 W/m2
14:39 98.2 °F 76.4 °F 29.81 in WSW 2.9 mph 12 mph 50% 0.00 in 244 W/m2
14:44 97.9 °F 77 °F 29.81 in WSW 1.1 mph 12 mph 51.6% 0.00 in 896 W/m2
14:49 97.9 °F 77.1 °F 29.81 in WSW 1.6 mph 12 mph 51.8% 0.00 in 865 W/m2
14:54 98 °F 76.9 °F 29.81 in West 1.5 mph 12 mph 51.2% 0.00 in 844 W/m2
14:59 98.2 °F 77 °F 29.81 in WSW 1.2 mph 12 mph 51% 0.00 in 874 W/m2
15:04 98.4 °F 77 °F 29.81 in SW 1.8 mph 12 mph 50.8% 0.00 in 916 W/m2
15:09 98.2 °F 76.4 °F 29.81 in SW 0.5 mph 12 mph 50.1% 0.00 in 499 W/m2
15:14 97.8 °F 76.3 °F 29.81 in SW 0.9 mph 12 mph 50.5% 0.00 in 232 W/m2
15:19 97.2 °F 75.8 °F 29.81 in WSW 2 mph 12 mph 50.6% 0.00 in 172 W/m2
15:24 96.5 °F 75.7 °F 29.82 in WNW 2.9 mph 12 mph 51.4% 0.00 in 237 W/m2
15:29 95.5 °F 76.4 °F 29.83 in WNW 3.5 mph 12 mph 54.2% 0.00 in 262 W/m2
15:34 94.1 °F 76.3 °F 29.83 in WNW 2.2 mph 12 mph 56.5% 0.00 in 262 W/m2
15:39 92.8 °F 76.1 °F 29.82 in NW 3.1 mph 11 mph 58.4% 0.00 in 258 W/m2
15:44 91.7 °F 76.1 °F 29.82 in NW 2.5 mph 11 mph 60.5% 0.00 in 251 W/m2
15:49 91.1 °F 76.3 °F 29.82 in NW 1.2 mph 11 mph 62.1% 0.00 in 448 W/m2
15:54 90.9 °F 76.2 °F 29.82 in WNW 4 mph 13 mph 62.2% 0.00 in 628 W/m2
15:59 90.8 °F 76.4 °F 29.82 in NW 3.7 mph 13 mph 62.8% 0.00 in 628 W/m2
16:00 90.8 °F 76.5 °F 29.82 in NW 3 mph 13 mph 63% 0.00 in 348 W/m2
16:09 91.1 °F 76.9 °F 29.82 in WNW 2 mph 9 mph 63.4% 0.00 in 779 W/m2
16:14 91.4 °F 76.7 °F 29.82 in NW 3.4 mph 11 mph 62.2% 0.00 in 677 W/m2
16:19 91.6 °F 76.6 °F 29.82 in WNW 1.5 mph 11 mph 61.7% 0.00 in 114 W/m2
16:24 91.8 °F 76.8 °F 29.82 in WNW 2.3 mph 11 mph 61.8% 0.00 in 91 W/m2
16:29 92 °F 76.3 °F 29.82 in WSW 1.5 mph 11 mph 60.5% 0.00 in 162 W/m2
16:34 92.1 °F 76.7 °F 29.82 in WNW 0.8 mph 11 mph 61% 0.00 in 162 W/m2
16:39 92.1 °F 76.5 °F 29.82 in WNW 1 mph 5 mph 60.6% 0.00 in 241 W/m2
16:44 92 °F 76.9 °F 29.82 in WNW 0.1 mph 5 mph 61.4% 0.00 in 213 W/m2
16:49 92.2 °F 76.8 °F 29.82 in WNW 0.3 mph 5 mph 61% 0.00 in 120 W/m2
16:54 92.5 °F 77 °F 29.82 in WNW 0.6 mph 5 mph 60.9% 0.00 in 100 W/m2
16:59 92.7 °F 76.5 °F 29.82 in WNW 2.3 mph 11 mph 59.3% 0.00 in 120 W/m2
17:04 92.7 °F 76.4 °F 29.82 in WNW 2 mph 11 mph 59.3% 0.00 in 111 W/m2
17:09 92.7 °F 76.5 °F 29.82 in NW 1.1 mph 7 mph 59.5% 0.00 in 88 W/m2
17:14 92.5 °F 76.2 °F 29.82 in WNW 2.7 mph 11 mph 59.2% 0.00 in 105 W/m2
17:19 92.4 °F 76.3 °F 29.82 in WNW 1.6 mph 11 mph 59.6% 0.00 in 105 W/m2
17:24 92.4 °F 76.4 °F 29.82 in WNW 2.6 mph 11 mph 59.8% 0.00 in 72 W/m2
17:29 92.3 °F 76.4 °F 29.82 in WNW 2.1 mph 11 mph 60% 0.00 in 76 W/m2
17:34 92.2 °F 76.3 °F 29.82 in NW 0.7 mph 11 mph 60.1% 0.00 in 63 W/m2
17:39 92 °F 76.4 °F 29.82 in WNW 1 mph 6 mph 60.6% 0.00 in 51 W/m2
17:44 91.8 °F 75.9 °F 29.82 in WNW 1.5 mph 6 mph 60% 0.00 in 37 W/m2
17:49 91.5 °F 75.7 °F 29.82 in WNW 0.7 mph 6 mph 60% 0.00 in 53 W/m2
17:54 91.2 °F 75.7 °F 29.82 in WNW 0.3 mph 6 mph 60.7% 0.00 in 84 W/m2
17:59 91 °F 76 °F 29.82 in WNW 0.2 mph 6 mph 61.6% 0.00 in 83 W/m2
18:04 91.1 °F 76.1 °F 29.82 in WNW 1.3 mph 7 mph 61.7% 0.00 in 72 W/m2
18:09 91.1 °F 75.8 °F 29.82 in West 0.9 mph 7 mph 61% 0.00 in 69 W/m2
18:14 91.2 °F 75.6 °F 29.83 in WNW 2.6 mph 11 mph 60.4% 0.00 in 53 W/m2
18:19 91.3 °F 75.4 °F 29.83 in West 1.3 mph 11 mph 59.8% 0.00 in 58 W/m2
18:24 91.3 °F 75.5 °F 29.83 in West 1.8 mph 11 mph 60% 0.00 in 56 W/m2
18:29 91.3 °F 74.8 °F 29.83 in WNW 1.7 mph 11 mph 58.7% 0.00 in 54 W/m2
18:34 91.2 °F 74.6 °F 29.84 in WNW 2.5 mph 14 mph 58.3% 0.00 in 62 W/m2
18:39 91.1 °F 74.3 °F 29.84 in West 2.3 mph 14 mph 58% 0.00 in 74 W/m2
18:44 91.1 °F 74.7 °F 29.84 in West 2.5 mph 14 mph 58.8% 0.00 in 74 W/m2
18:49 90.9 °F 74.8 °F 29.84 in WNW 0.4 mph 14 mph 59.4% 0.00 in 53 W/m2
18:54 90.8 °F 75.2 °F 29.84 in WNW 1.6 mph 14 mph 60.3% 0.00 in 53 W/m2
18:59 90.6 °F 75.1 °F 29.84 in NW 1.5 mph 14 mph 60.5% 0.00 in 46 W/m2
19:04 90.4 °F 74.9 °F 29.85 in NNW 0.9 mph 14 mph 60.7% 0.00 in 26 W/m2
Hartford County Weather
Compliments of Weather Underground - 4 mb